User: anonymous   Login
Location: Drayton Valley
(53.2170°N, 114.9830°W)
Time: 20:18:57
(UTC-06:00)
Language:

Cosmos 1302 Rocket - Orbit

View from above orbital plane
View from above orbital plane
View from above satellite
View from above satellite

Ground track
Ground track

The orbit data is extracted from the following two-line orbital elements,

1 12792U 81084B   16243.20569171  .00000154  00000-0  60241-4 0  9996
2 12792  74.0292 211.0309 0014326 211.8852 148.1436 14.37430505833245
Epoch (UTC): 30 August 2016 04:56:11
Eccentricity: 0.0014326
inclination: 74.0292°
perigee height: 757 km
apogee height: 777 km
right ascension of ascending node: 211.0309°
argument of perigee: 211.8852°
revolutions per day: 14.37430505
mean anomaly at epoch: 148.1436°
orbit number at epoch: 83324

The dashed part of the orbit path shows where the satellite is in the earth's shadow,  

DLR